星链-31678 (STARLINK-31678 )

导读

STARLINK-31678是美国太空探索技术公司SpaceX于2024年4月13日发射的星链(Starlink)低轨卫星,属于全球星链互联网星座的一员。星链项目旨在通过近地轨道大规模卫星组网,为全球尤其是偏远无基础设施区域提供高速低延迟宽带网络服务,该卫星已随星座扩展持续推进全球互联网覆盖的建设目标,同时也引发关于太空资源利用与天文观测影响的讨论。

Basic Information
目录编号:
59493
目录名称:
STARLINK-31678
国际标识:
2024-071K
轨道中心:
EARTH
卫星名称:
星链-31678
卫星全名:
星链-31678 (STARLINK-31678 )
卫星状态:
在轨 (已飞行792 天)
发射日期:
2024-04-13 UTC
国别 :
美国 (US)
星等 :
--
Orbit Information
数据来源 国际轨道数据 AOE轨道数据
星历时间 2026-06-14T01:22:51+0800
19小时前
查看轨道信息
2026-06-14T02:00:00+0800
19小时前
查看轨道信息
半长轴 6861.185km 6861.161km
偏心率 0.0001256 0.0001851
轨道倾角 43.002° 43.003°
近地点辐角 297.755° 276.774°
升交点赤经 165.113° 164.980°
平近点角 62.317° 225.319°
近地点 482.186km 481.753km
远地点 483.91km 484.295km
周期 94.267分钟 94.266分钟
每日圈数 15.275804 15.275885
Detailed Information
固有亮度:
5
最大亮度:
1.5
卫星平台:
Starlink v2.0 mini
覆盖范围:
全球
运营商:
太空探索技术公司
运营商所在国:
美国
制造商(研发单位):
太空探索技术公司
制造商所在国:
美国
使用方式:
暂无
Satellite Introduction
星链(Starlink)计划是由太空探索技术公司(SpaceX)提出的一个巨型低轨卫星互联网星座项目,计划在2019年至2024年间在太空搭建由约1.2万颗卫星组成的“星链”网络,其中1584颗将部署在地球上空550千米处的近地轨道,并从2020年开始工作。该卫星仍在工作。
2D Orbit Map
3D Orbit Map
Orbit Altitude Analysis Chart
Orbit Inclination Analysis Chart
Orbit Comprehensive Analysis Chart
View Comprehensive Chart